Ely, NV

5:40 AM PDT on April 25, 2017 (GMT -0700)
Ely

Weather History for KELY - March, 2013

Change the Weather History Date:

Saturday, March 30, 2013

  Actual Average Record
Temperature  
Mean Temperature 48 °F 39 °F  
Max Temperature 65 °F 54 °F 74 °F (2015)
Min Temperature 30 °F 24 °F -4 °F (1897)
Degree Days  
Heating Degree Days 17 26  
Month to date heating degree days 742 864  
Since 1 July heating degree days 5961 6201  
Cooling Degree Days 0 0  
Month to date cooling degree days 0 0  
Year to date cooling degree days 0 0  
Moisture  
Dew Point 26 °F    
Average Humidity 50    
Maximum Humidity 78    
Minimum Humidity 22    
Precipitation  
Precipitation 0.00 in 0.03 in 0.69 in (1954)
Month to date precipitation 0.24 0.90  
Year to date precipitation 1.69 2.35  
Snow  
Snow 0.00 in 0.30 in 9.00 in (1954)
Month to date snowfall 3.1 8.1  
Since 1 July snowfall 58.5 43.0  
Snow Depth 0.00 in    
Sea Level Pressure  
Sea Level Pressure 30.07 in    
Wind  
Wind Speed 6 mph (South)    
Max Wind Speed 17 mph    
Max Gust Speed 23 mph    
Visibility 10 miles    
Events      
T = Trace of Precipitation, MM = Missing Value Source: NWS Daily Summary

Daily Weather History Graph

Daily Weather History Graph

Search for Another Location

Airport or City:

Trip Planner

Search our weather history database for the weather conditions in past years. The results will help you decide how hot, cold, wet, or windy it might be!

Date:

Astronomy

Mar. 30, 2013 Rise Set
Actual Time 6:26 AM PDT 7:01 PM PDT
Civil Twilight 5:59 AM PDT 7:28 PM PDT
Nautical Twilight 5:27 AM PDT 8:00 PM PDT
Astronomical Twilight 4:55 AM PDT 8:33 PM PDT
Moon 11:11 PM PDT (3/30) 8:26 AM PDT (3/30)
Length of Visible Light 13h 29m
Length of Day
12h 35m
Waning Gibbous, 85% of the Moon is Illuminated
Mar 30
Waning Gibbous
Apr 2
Last Quarter
Apr 10
New
Apr 18
First Quarter
Apr 25
Full

Hourly Weather History & Observations

Time (PDT) Temp. Windchill Dew Point Humidity Pressure Visibility Wind Dir Wind Speed Gust Speed Precip Events Conditions
12:53 AM 37.0 °F 34.5 °F 28.0 °F 70% 30.10 in 10.0 mi Variable 3.5 mph - N/A   Overcast
1:53 AM 36.0 °F 31.1 °F 27.0 °F 70% 30.10 in 10.0 mi SSE 5.8 mph - N/A   Mostly Cloudy
2:53 AM 35.1 °F 28.6 °F 27.0 °F 72% 30.11 in 10.0 mi South 8.1 mph - N/A   Overcast
3:53 AM 32.0 °F 23.0 °F 25.0 °F 75% 30.12 in 10.0 mi South 11.5 mph - N/A   Clear
4:53 AM 30.0 °F 22.4 °F 25.0 °F 82% 30.12 in 10.0 mi SSE 8.1 mph - N/A   Partly Cloudy
5:53 AM 30.0 °F 21.1 °F 24.1 °F 79% 30.14 in 10.0 mi South 10.4 mph - N/A   Partly Cloudy
6:53 AM 30.9 °F 25.2 °F 25.0 °F 79% 30.18 in 10.0 mi South 5.8 mph - N/A   Overcast
7:53 AM 37.9 °F 34.4 °F 28.0 °F 68% 30.14 in 10.0 mi SE 4.6 mph - N/A   Clear
8:53 AM 46.9 °F - 30.0 °F 52% 30.11 in 10.0 mi Calm Calm - N/A   Clear
9:53 AM 53.1 °F - 28.9 °F 40% 30.12 in 10.0 mi Calm Calm - N/A   Clear
10:53 AM 60.1 °F - 28.9 °F 31% 30.09 in 10.0 mi Calm Calm - N/A   Clear
11:53 AM 62.1 °F - 26.1 °F 25% 30.07 in 10.0 mi North 12.7 mph 18.4 mph N/A   Overcast
12:53 PM 64.0 °F - 24.1 °F 22% 30.05 in 10.0 mi NE 9.2 mph - N/A   Mostly Cloudy
1:53 PM 61.0 °F - 24.1 °F 24% 30.05 in 10.0 mi South 3.5 mph - N/A   Clear
2:53 PM 62.1 °F - 26.1 °F 25% 30.04 in 10.0 mi SW 5.8 mph - N/A   Overcast
3:53 PM 63.0 °F - 26.1 °F 25% 30.04 in 10.0 mi Variable 6.9 mph - N/A   Scattered Clouds
4:53 PM 60.1 °F - 24.1 °F 25% 30.04 in 10.0 mi Calm Calm - N/A   Clear
5:53 PM 60.1 °F - 24.1 °F 25% 30.03 in 10.0 mi Calm Calm - N/A   Partly Cloudy
6:53 PM 53.1 °F - 26.1 °F 35% 30.06 in 10.0 mi South 6.9 mph - N/A   Clear
7:53 PM 48.9 °F - 27.0 °F 43% 30.05 in 10.0 mi SSW 10.4 mph - N/A   Clear
8:53 PM 45.0 °F 40.6 °F 27.0 °F 49% 30.05 in 10.0 mi South 8.1 mph - N/A   Clear
9:53 PM 44.1 °F 40.1 °F 28.0 °F 53% 30.03 in 10.0 mi South 6.9 mph - N/A   Overcast
10:53 PM 43.0 °F 38.8 °F 28.0 °F 56% 30.00 in 10.0 mi South 6.9 mph - N/A   Clear
11:53 PM 39.9 °F 33.9 °F 27.0 °F 60% 29.99 in 10.0 mi SSE 9.2 mph - N/A   Clear